Location: Sternwarte Hubelmatt
(47.0367°N, 8.3053°E)
Time: 11:33:25
(UTC+02:00)

ISS - Visible Passes

Search period start: 16 June 2025 00:00
Search period end: 26 June 2025 00:00
Orbit: 415 x 417 km, 51.6° (Epoch: 15 June)

Date Brightness Start Highest point End Pass type
(mag) Time Alt. Az. Time Alt. Az. Time Alt. Az.
22 Jun -1.8 04:32:47 10° S 04:35:16 19° SE 04:37:45 10° E visible
23 Jun -1.3 03:45:28 10° SSE 03:46:46 12° SE 03:48:09 10° ESE visible
24 Jun -3.1 04:31:23 12° SW 04:34:18 43° SE 04:37:30 10° ENE visible
25 Jun -2.5 03:44:22 21° S 03:45:40 28° SE 03:48:35 10° E visible
